TimeEST,TemperatureF,Dew PointF,Humidity,Sea Level PressureIn,VisibilityMPH,Wind Direction,Wind SpeedMPH,Gust SpeedMPH,PrecipitationIn,Events,Conditions,WindDirDegrees,DateUTC
12:53 AM,44.1,43.0,96,30.12,4.0,Calm,Calm,-,0.00,Rain,Light Rain,0,2011-12-20 05:53:00
1:53 AM,44.1,42.1,93,30.12,3.0,Calm,Calm,-,0.00,Rain,Light Rain,0,2011-12-20 06:53:00
2:23 AM,44.6,42.8,93,30.11,2.5,Calm,Calm,-,0.00,Rain,Light Rain,0,2011-12-20 07:23:00
2:31 AM,44.6,42.8,93,30.11,2.5,Calm,Calm,-,0.00,Rain,Light Rain,0,2011-12-20 07:31:00
2:53 AM,44.1,42.1,93,30.12,3.0,Calm,Calm,-,0.00,Rain,Light Rain,0,2011-12-20 07:53:00
3:51 AM,44.6,42.8,93,30.09,2.0,Calm,Calm,-,0.00,,Overcast,0,2011-12-20 08:51:00
3:53 AM,44.1,42.1,93,30.10,2.0,Calm,Calm,-,0.00,,Overcast,0,2011-12-20 08:53:00
4:25 AM,44.6,42.8,93,30.07,2.5,Calm,Calm,-,N/A,,Overcast,0,2011-12-20 09:25:00
4:53 AM,44.1,42.1,93,30.07,2.0,Calm,Calm,-,N/A,,Overcast,0,2011-12-20 09:53:00
5:07 AM,42.8,42.8,100,30.08,1.8,South,3.5,-,N/A,,Overcast,180,2011-12-20 10:07:00
5:19 AM,44.6,42.8,93,30.08,0.5,Calm,Calm,-,N/A,Fog,Fog,0,2011-12-20 10:19:00
5:53 AM,44.1,42.1,93,30.08,0.8,Calm,Calm,-,N/A,,Mist,0,2011-12-20 10:53:00
6:37 AM,42.8,42.8,100,30.08,0.2,SE,3.5,-,N/A,Fog,Fog,130,2011-12-20 11:37:00
6:53 AM,43.0,42.1,97,30.09,0.2,Calm,Calm,-,N/A,Fog,Fog,0,2011-12-20 11:53:00
7:53 AM,43.0,42.1,97,30.09,0.5,Calm,Calm,-,N/A,Fog,Fog,0,2011-12-20 12:53:00
8:53 AM,43.0,42.1,97,30.06,0.2,SE,6.9,-,N/A,Fog,Fog,130,2011-12-20 13:53:00
9:17 AM,42.8,42.8,100,30.05,0.5,SE,8.1,-,0.00,Fog-Rain,Light Rain,140,2011-12-20 14:17:00
9:26 AM,42.8,42.8,100,30.05,1.8,SE,9.2,-,0.00,Rain,Light Rain,140,2011-12-20 14:26:00
9:33 AM,42.8,42.8,100,30.05,2.5,SE,8.1,-,0.00,Rain,Light Rain,140,2011-12-20 14:33:00
9:40 AM,42.8,42.8,100,30.04,4.0,SE,8.1,-,0.00,Rain,Light Rain,140,2011-12-20 14:40:00
9:53 AM,44.1,42.1,93,30.06,5.0,SE,8.1,-,0.00,Rain,Light Rain,140,2011-12-20 14:53:00
10:53 AM,45.0,42.1,90,30.01,8.0,ESE,9.2,-,0.00,,Overcast,110,2011-12-20 15:53:00
11:53 AM,46.0,42.1,86,30.01,10.0,ESE,6.9,-,N/A,,Overcast,120,2011-12-20 16:53:00
1:53 PM,46.9,41.0,80,29.96,10.0,ESE,5.8,-,N/A,,Overcast,120,2011-12-20 18:53:00
2:10 PM,46.4,41.0,81,29.93,10.0,East,5.8,-,N/A,,Overcast,100,2011-12-20 19:10:00
2:53 PM,46.9,42.1,83,29.91,6.0,ESE,4.6,-,N/A,,Haze,120,2011-12-20 19:53:00
3:12 PM,46.4,42.8,87,29.90,2.5,ESE,5.8,-,0.00,Rain,Light Rain,110,2011-12-20 20:12:00
3:41 PM,46.4,42.8,87,29.89,8.0,ESE,8.1,-,0.00,,Overcast,120,2011-12-20 20:41:00
4:00 PM,46.4,42.8,87,29.88,5.0,East,8.1,-,N/A,,Overcast,100,2011-12-20 21:00:00
4:13 PM,46.4,42.8,87,29.88,2.5,ESE,9.2,-,N/A,,Overcast,110,2011-12-20 21:13:00
4:23 PM,46.4,44.6,93,29.87,1.5,East,5.8,-,0.00,Rain,Light Rain,100,2011-12-20 21:23:00
4:48 PM,46.4,44.6,93,29.88,1.2,ESE,5.8,-,0.00,Rain,Light Rain,110,2011-12-20 21:48:00
4:53 PM,46.0,44.1,93,29.89,1.2,ESE,9.2,-,0.00,Rain,Light Rain,110,2011-12-20 21:53:00
5:27 PM,44.6,44.6,100,29.88,2.0,ESE,5.8,-,0.00,Rain,Light Rain,120,2011-12-20 22:27:00
5:34 PM,44.6,44.6,100,29.88,2.0,SE,8.1,-,0.00,Rain,Light Rain,130,2011-12-20 22:34:00
5:46 PM,44.6,44.6,100,29.89,1.8,SE,5.8,-,0.00,Rain,Light Rain,130,2011-12-20 22:46:00
5:53 PM,45.0,44.1,97,29.89,1.8,SE,5.8,-,0.00,Rain,Light Rain,130,2011-12-20 22:53:00
6:53 PM,46.0,44.1,93,29.88,1.8,SE,8.1,-,0.00,,Overcast,130,2011-12-20 23:53:00
7:53 PM,46.0,45.0,96,29.87,1.8,SSE,6.9,-,N/A,,Overcast,160,2011-12-21 00:53:00
8:33 PM,46.4,44.6,93,29.84,2.0,SSE,5.8,-,N/A,,Overcast,150,2011-12-21 01:33:00
8:53 PM,46.9,46.0,97,29.85,2.0,SSE,5.8,-,N/A,,Overcast,150,2011-12-21 01:53:00
9:06 PM,46.4,46.4,100,29.84,1.5,SE,6.9,-,0.01,Rain,Rain,140,2011-12-21 02:06:00
9:40 PM,46.4,46.4,100,29.83,3.0,SSE,5.8,-,0.03,Rain,Light Rain,150,2011-12-21 02:40:00
9:50 PM,46.4,46.4,100,29.83,2.0,SSE,8.1,-,0.03,Rain,Light Rain,150,2011-12-21 02:50:00
9:53 PM,46.9,46.0,97,29.83,2.0,SSE,5.8,-,0.03,Rain,Rain,150,2011-12-21 02:53:00
10:09 PM,48.2,46.4,93,29.82,3.0,SSE,8.1,-,0.01,Rain,Light Rain,150,2011-12-21 03:09:00
10:38 PM,48.2,46.4,93,29.81,1.8,SSE,6.9,-,0.01,,Overcast,150,2011-12-21 03:38:00
10:53 PM,48.0,46.9,96,29.81,1.0,SSE,8.1,-,0.01,,Overcast,150,2011-12-21 03:53:00
11:03 PM,48.2,48.2,100,29.80,0.5,SSE,6.9,-,N/A,Fog,Fog,160,2011-12-21 04:03:00
11:30 PM,48.2,48.2,100,29.79,0.2,SSE,6.9,-,0.00,Fog-Rain,Light Rain,150,2011-12-21 04:30:00
11:38 PM,48.2,48.2,100,29.79,0.5,SSE,5.8,-,0.00,Fog-Rain,Light Rain,160,2011-12-21 04:38:00
11:53 PM,48.9,48.9,100,29.78,0.5,SSE,8.1,-,0.02,Fog-Rain,Rain,150,2011-12-21 04:53:00